CAPE
0 0 0 0 0 0 0 0 0 0 0 0 0 0 0 0 0 78 0 0 1 265 751 852 1153 1072 990 978 1094 1217 1214 1196 1199 1226 1198 1074 1039 870 380 256 215 335 441 105 73 427 675 228 508
0 0 0 0 0 0 0 0 0 0 0 0 0 0 0 0 0 0 0 0 0 20 10 6 15 435 728 879 980 1025 1014 1002 988 986 1071 1154 960 1004 967 892 574 306 267 672 703 555 520 751 602
0 0 0 0 0 0 0 0 0 0 0 0 0 0 0 0 0 0 0 0 0 0 0 0 0 0 0 0 0 11 213 878 988 873 849 841 871 889 953 784 797 1003 744 372 376 798 989 848 759
0 0 0 0 0 0 0 0 0 0 0 0 0 0 0 0 0 0 0 0 0 0 0 0 0 0 0 0 0 0 0 0 34 777 776 845 845 873 817 828 818 931 1007 952 984 764 467 938 1034
0 0 0 0 0 0 0 0 0 0 0 0 0 0 0 0 0 0 0 0 0 0 0 0 0 0 0 0 0 0 0 0 0 0 0 389 663 812 826 878 917 770 713 823 911 960 896 795 988
0 0 0 0 0 0 0 0 0 0 0 0 0 0 0 0 0 0 0 0 0 0 0 0 0 0 0 0 0 0 0 0 0 0 0 0 0 0 17 374 676 757 784 795 864 859 900 1038 953
0 0 0 0 0 0 0 0 0 0 0 0 0 0 0 0 0 0 0 0 0 0 0 0 0 0 0 0 0 0 0 0 0 0 0 0 0 0 0 0 0 258 482 741 882 920 806 913 1068
0 0 0 0 0 0 0 0 0 0 0 0 0 0 0 0 0 0 0 0 0 0 0 0 0 0 0 0 0 0 0 0 0 0 0 0 0 0 0 0 0 0 0 18 437 647 773 977 1171
0 0 0 0 0 0 0 0 0 0 0 0 0 0 0 0 0 0 0 0 0 0 0 0 0 0 0 0 0 0 0 0 0 0 0 0 0 0 0 0 0 0 0 0 0 21 413 651 530
0 0 0 0 0 0 0 0 0 0 0 0 0 0 0 0 0 0 0 0 0 0 0 0 0 0 0 0 0 0 0 0 0 0 0 0 0 0 0 0 0 0 0 0 0 23 194 206 312
0 0 0 0 0 0 0 0 0 0 0 0 0 0 0 0 0 0 0 0 0 0 0 0 0 0 0 0 0 0 0 0 0 0 0 0 0 0 0 0 0 0 0 0 0 0 0 2 25
0 0 0 0 0 0 0 0 0 0 0 0 0 0 0 0 0 0 0 0 0 0 0 0 0 0 0 0 0 0 0 0 0 0 0 0 0 0 0 0 0 0 0 0 0 0 0 0 0
0 0 0 0 0 0 0 0 0 0 0 0 0 0 0 0 0 0 0 0 0 0 0 0 0 0 0 0 0 0 0 0 0 0 0 0 0 0 0 0 0 0 0 0 0 0 0 0 0
0 0 0 0 0 0 0 0 0 0 0 0 0 0 0 0 0 0 0 0 0 0 0 0 0 0 0 0 0 0 0 0 0 0 1 0 0 0 0 0 0 0 0 0 0 0 0 0 0
0 0 0 0 0 0 0 0 0 0 0 0 0 0 0 0 0 0 0 0 0 0 0 0 0 0 0 0 0 0 0 0 1 1 1 0 0 0 0 0 0 0 0 0 0 0 0 0 0
0 0 0 0 0 0 0 0 0 0 0 0 0 0 0 0 0 0 0 0 0 0 0 0 0 0 0 0 0 0 0 0 0 2 0 0 0 0 0 0 0 0 0 0 0 0 4 4 1
0 0 0 0 0 0 0 0 0 0 0 0 0 0 0 0 0 0 0 0 0 0 0 0 0 0 0 0 0 0 0 0 0 0 0 0 0 0 0 0 0 1 3 4 4 1 3 4 3
0 0 0 0 0 0 0 0 0 0 0 0 0 0 0 0 0 0 0 0 0 0 0 0 0 0 0 0 0 0 1 0 0 0 0 0 0 0 0 0 0 1 1 0 0 5 2 3 3
0 0 0 0 0 0 0 0 0 0 0 0 0 0 0 0 0 0 0 0 0 0 0 0 0 0 0 0 0 0 0 1 0 0 0 0 0 0 0 0 0 0 0 2 3 2 2 0 4
0 0 0 0 0 0 0 0 0 0 0 0 0 0 0 0 0 0 0 0 0 0 0 0 0 0 0 0 0 0 0 0 0 0 0 0 0 0 0 0 0 0 0 1 1 3 6 3 5
0 0 0 0 0 0 0 0 0 0 0 0 0 0 0 0 0 0 0 0 0 0 0 0 0 0 0 0 0 0 0 0 0 0 0 0 0 0 0 0 0 0 0 0 0 2 1 6 3
0 0 0 0 0 0 0 0 0 0 0 0 0 0 0 0 0 0 0 0 0 0 0 0 0 0 0 0 0 0 0 0 0 0 0 0 0 0 0 0 0 0 0 0 0 0 4 4 6
0 0 0 0 0 0 0 0 0 0 0 0 0 0 0 0 0 0 0 0 0 0 0 0 0 0 0 0 0 0 0 0 0 0 0 0 0 0 0 0 0 0 0 0 0 0 0 4 3
0 0 0 0 0 0 0 0 0 0 0 0 0 0 0 0 0 0 0 0 0 0 0 0 0 0 0 0 0 0 0 0 0 0 0 0 0 0 0 0 0 0 0 0 0 0 0 0 0
0 0 0 0 0 0 0 0 0 0 0 0 0 0 0 0 0 0 0 0 0 0 0 0 0 0 0 0 0 0 0 0 0 0 0 0 0 0 0 0 0 0 0 0 0 0 0 0 0
0 0 0 0 0 0 0 0 0 0 0 0 0 0 0 0 0 0 0 0 0 0 0 0 0 0 0 0 0 0 0 0 0 0 0 0 0 0 0 0 0 0 0 0 0 0 0 0 0
0 0 0 0 0 0 0 0 0 0 0 0 0 0 0 0 0 0 0 0 0 0 0 0 0 0 0 0 0 0 0 0 0 0 0 0 0 0 0 0 0 0 0 0 0 0 0 0 0
0 0 0 0 0 0 0 0 0 0 0 0 0 0 0 0 0 0 0 0 0 0 0 0 0 0 0 0 0 0 0 0 0 0 0 0 0 0 0 0 0 0 0 0 0 0 0 0 0
0 0 0 0 0 0 0 0 0 0 0 0 0 0 0 0 0 0 0 0 0 0 0 0 0 0 0 0 0 0 0 0 0 0 0 0 0 0 0 0 0 0 0 0 0 0 0 0 0
0 0 0 0 0 0 0 0 0 0 0 0 0 0 0 0 0 0 0 0 0 0 0 0 0 0 0 0 0 0 0 0 0 0 0 0 0 0 0 0 0 0 0 0 0 0 0 0 0
CIN
-0 -0 -0 -0 -0 -0 -0 -0 -0 -0 -0 -0 -0 -0 -0 -0 -0 -95 -0 -0 -58 -103 -2 -0 -2 -1 -0 -0 -0 -1 -0 -0 -0 -0 -0 -1 -1 -2 -16 -49 -70 -24 -1 -123 -119 -2 -0 -32 -1
-0 -0 -0 -0 -0 -0 -0 -0 -0 -0 -0 -0 -0 -0 -0 -0 -0 -0 -0 -0 -0 -253 -224 -259 -231 -100 -14 -0 -0 -0 -0 -0 -0 -0 -0 -0 -0 -0 -0 -0 -1 -16 -25 -0 -0 -0 -0 -1 -1
-0 -0 -0 -0 -0 -0 -0 -0 -0 -0 -0 -0 -0 -0 -0 -0 -0 -0 -0 -0 -0 -0 -0 -0 -0 -0 -0 -0 -0 -80 -130 -0 -0 -0 -0 -0 -0 -0 -0 -0 -0 -1 -0 -5 -4 -0 -0 -1 -0
-0 -0 -0 -0 -0 -0 -0 -0 -0 -0 -0 -0 -0 -0 -0 -0 -0 -0 -0 -0 -0 -0 -0 -0 -0 -0 -0 -0 -0 -0 -0 -0 -59 -0 -0 -0 -0 -0 -0 -0 -0 -1 -0 -0 -0 -0 -3 -0 -0
-0 -0 -0 -0 -0 -0 -0 -0 -0 -0 -0 -0 -0 -0 -0 -0 -0 -0 -0 -0 -0 -0 -0 -0 -0 -0 -0 -0 -0 -0 -0 -0 -0 -0 -0 -7 -3 -1 -2 -3 -1 -1 -0 -0 -0 -0 -0 -0 -0
-0 -0 -0 -0 -0 -0 -0 -0 -0 -0 -0 -0 -0 -0 -0 -0 -0 -0 -0 -0 -0 -0 -0 -0 -0 -0 -0 -0 -0 -0 -0 -0 -0 -0 -0 -0 -0 -0 -29 -12 -3 -1 -0 -0 -0 -0 -0 -0 -0
-0 -0 -0 -0 -0 -0 -0 -0 -0 -0 -0 -0 -0 -0 -0 -0 -0 -0 -0 -0 -0 -0 -0 -0 -0 -0 -0 -0 -0 -0 -0 -0 -0 -0 -0 -0 -0 -0 -0 -0 -0 -18 -4 -0 -0 -0 -0 -0 -0
-0 -0 -0 -0 -0 -0 -0 -0 -0 -0 -0 -0 -0 -0 -0 -0 -0 -0 -0 -0 -0 -0 -0 -0 -0 -0 -0 -0 -0 -0 -0 -0 -0 -0 -0 -0 -0 -0 -0 -0 -0 -0 -0 -116 -2 -0 -0 -0 -0
-0 -0 -0 -0 -0 -0 -0 -0 -0 -0 -0 -0 -0 -0 -0 -0 -0 -0 -0 -0 -0 -0 -0 -0 -0 -0 -0 -0 -0 -0 -0 -0 -0 -0 -0 -0 -0 -0 -0 -0 -0 -0 -0 -0 -0 -157 -8 -4 -17
-0 -0 -0 -0 -0 -0 -0 -0 -0 -0 -0 -0 -0 -0 -0 -0 -0 -0 -0 -0 -0 -0 -0 -0 -0 -0 -0 -0 -0 -0 -0 -0 -0 -0 -0 -0 -0 -0 -0 -0 -0 -0 -0 -0 -0 -155 -28 -59 -18
-0 -0 -0 -0 -0 -0 -0 -0 -0 -0 -0 -0 -0 -0 -0 -0 -0 -0 -0 -0 -0 -0 -0 -0 -0 -0 -0 -0 -0 -0 -0 -0 -0 -0 -0 -0 -0 -0 -0 -0 -0 -0 -0 -0 -0 -0 -0 -4 -5
-0 -0 -0 -0 -0 -0 -0 -0 -0 -0 -0 -0 -0 -0 -0 -0 -0 -0 -0 -0 -0 -0 -0 -0 -0 -0 -0 -0 -0 -0 -0 -0 -0 -0 -0 -0 -0 -0 -0 -0 -0 -0 -0 -0 -0 -0 -0 -0 -0
-0 -0 -0 -0 -0 -0 -0 -0 -0 -0 -0 -0 -0 -0 -0 -0 -0 -0 -0 -0 -0 -0 -0 -0 -0 -0 -0 -0 -0 -0 -0 -0 -0 -0 -0 -0 -0 -0 -0 -0 -0 -0 -0 -0 -0 -0 -0 -0 -0
-0 -0 -0 -0 -0 -0 -0 -0 -0 -0 -0 -0 -0 -0 -0 -0 -0 -0 -0 -0 -0 -0 -0 -0 -0 -0 -0 -0 -0 -0 -0 -0 -0 -0 -0 -0 -0 -0 -0 -0 -0 -0 -0 -0 -0 -0 -0 -0 -0
-0 -0 -0 -0 -0 -0 -0 -0 -0 -0 -0 -0 -0 -0 -0 -0 -0 -0 -0 -0 -0 -0 -0 -0 -0 -0 -0 -0 -0 -0 -0 -0 -0 -0 -0 -0 -0 -0 -0 -0 -0 -0 -0 -0 -0 -0 -0 -0 -0
-0 -0 -0 -0 -0 -0 -0 -0 -0 -0 -0 -0 -0 -0 -0 -0 -0 -0 -0 -0 -0 -0 -0 -0 -0 -0 -0 -0 -0 -0 -0 -0 -0 -0 -0 -0 -0 -0 -0 -0 -0 -0 -0 -0 -0 -0 -0 -0 -0
-0 -0 -0 -0 -0 -0 -0 -0 -0 -0 -0 -0 -0 -0 -0 -0 -0 -0 -0 -0 -0 -0 -0 -0 -0 -0 -0 -0 -0 -0 -0 -0 -0 -0 -0 -0 -0 -0 -0 -0 -0 -0 -0 -0 -0 -0 -0 -0 -0
-0 -0 -0 -0 -0 -0 -0 -0 -0 -0 -0 -0 -0 -0 -0 -0 -0 -0 -0 -0 -0 -0 -0 -0 -0 -0 -0 -0 -0 -0 -0 -0 -0 -0 -0 -0 -0 -0 -0 -0 -0 -0 -0 -0 -0 -0 -0 -0 -0
-0 -0 -0 -0 -0 -0 -0 -0 -0 -0 -0 -0 -0 -0 -0 -0 -0 -0 -0 -0 -0 -0 -0 -0 -0 -0 -0 -0 -0 -0 -0 -0 -0 -0 -0 -0 -0 -0 -0 -0 -0 -0 -0 -0 -0 -0 -0 -0 -0
-0 -0 -0 -0 -0 -0 -0 -0 -0 -0 -0 -0 -0 -0 -0 -0 -0 -0 -0 -0 -0 -0 -0 -0 -0 -0 -0 -0 -0 -0 -0 -0 -0 -0 -0 -0 -0 -0 -0 -0 -0 -0 -0 -0 -0 -0 -0 -0 -0
-0 -0 -0 -0 -0 -0 -0 -0 -0 -0 -0 -0 -0 -0 -0 -0 -0 -0 -0 -0 -0 -0 -0 -0 -0 -0 -0 -0 -0 -0 -0 -0 -0 -0 -0 -0 -0 -0 -0 -0 -0 -0 -0 -0 -0 -0 -0 -0 -0
-0 -0 -0 -0 -0 -0 -0 -0 -0 -0 -0 -0 -0 -0 -0 -0 -0 -0 -0 -0 -0 -0 -0 -0 -0 -0 -0 -0 -0 -0 -0 -0 -0 -0 -0 -0 -0 -0 -0 -0 -0 -0 -0 -0 -0 -0 -0 -0 -0
-0 -0 -0 -0 -0 -0 -0 -0 -0 -0 -0 -0 -0 -0 -0 -0 -0 -0 -0 -0 -0 -0 -0 -0 -0 -0 -0 -0 -0 -0 -0 -0 -0 -0 -0 -0 -0 -0 -0 -0 -0 -0 -0 -0 -0 -0 -0 -0 -0
-0 -0 -0 -0 -0 -0 -0 -0 -0 -0 -0 -0 -0 -0 -0 -0 -0 -0 -0 -0 -0 -0 -0 -0 -0 -0 -0 -0 -0 -0 -0 -0 -0 -0 -0 -0 -0 -0 -0 -0 -0 -0 -0 -0 -0 -0 -0 -0 -0
-0 -0 -0 -0 -0 -0 -0 -0 -0 -0 -0 -0 -0 -0 -0 -0 -0 -0 -0 -0 -0 -0 -0 -0 -0 -0 -0 -0 -0 -0 -0 -0 -0 -0 -0 -0 -0 -0 -0 -0 -0 -0 -0 -0 -0 -0 -0 -0 -0
-0 -0 -0 -0 -0 -0 -0 -0 -0 -0 -0 -0 -0 -0 -0 -0 -0 -0 -0 -0 -0 -0 -0 -0 -0 -0 -0 -0 -0 -0 -0 -0 -0 -0 -0 -0 -0 -0 -0 -0 -0 -0 -0 -0 -0 -0 -0 -0 -0
-0 -0 -0 -0 -0 -0 -0 -0 -0 -0 -0 -0 -0 -0 -0 -0 -0 -0 -0 -0 -0 -0 -0 -0 -0 -0 -0 -0 -0 -0 -0 -0 -0 -0 -0 -0 -0 -0 -0 -0 -0 -0 -0 -0 -0 -0 -0 -0 -0
-0 -0 -0 -0 -0 -0 -0 -0 -0 -0 -0 -0 -0 -0 -0 -0 -0 -0 -0 -0 -0 -0 -0 -0 -0 -0 -0 -0 -0 -0 -0 -0 -0 -0 -0 -0 -0 -0 -0 -0 -0 -0 -0 -0 -0 -0 -0 -0 -0
-0 -0 -0 -0 -0 -0 -0 -0 -0 -0 -0 -0 -0 -0 -0 -0 -0 -0 -0 -0 -0 -0 -0 -0 -0 -0 -0 -0 -0 -0 -0 -0 -0 -0 -0 -0 -0 -0 -0 -0 -0 -0 -0 -0 -0 -0 -0 -0 -0
-0 -0 -0 -0 -0 -0 -0 -0 -0 -0 -0 -0 -0 -0 -0 -0 -0 -0 -0 -0 -0 -0 -0 -0 -0 -0 -0 -0 -0 -0 -0 -0 -0 -0 -0 -0 -0 -0 -0 -0 -0 -0 -0 -0 -0 -0 -0 -0 -0
Wind_Speed
11 7 3 4 6 7 5 5 9 8 8 4 4 6 13 13 10 6 8 8 8 11 13 14 14 11 11 10 10 9 7 6 7 8 7 4 4 2 3 3 3 4 4 4 5 5 5 5 3
5 4 4 3 8 9 7 8 11 7 9 9 8 4 6 7 11 10 7 7 8 10 12 14 17 17 16 14 12 11 9 9 8 8 8 7 6 6 5 5 5 5 6 7 7 6 6 6 6
8 4 4 4 6 4 9 10 12 13 7 4 5 8 4 5 5 6 7 3 6 9 12 12 16 15 15 15 14 14 13 12 10 8 8 7 7 7 7 6 8 6 6 7 8 9 10 8 8
6 4 3 6 8 5 6 10 13 11 5 1 6 8 7 7 4 7 6 3 6 9 11 14 15 15 14 14 13 13 12 12 12 11 8 7 7 7 6 5 5 6 7 9 9 9 10 9 9
5 3 5 6 7 4 9 10 12 10 7 7 0 6 7 7 9 8 7 7 7 8 8 10 13 13 13 13 13 13 12 12 11 11 11 10 10 9 9 9 8 7 8 9 10 10 10 9 9
5 4 7 9 7 6 8 7 7 7 6 6 3 8 7 11 8 7 6 8 8 7 7 7 8 7 7 9 12 12 12 12 12 11 11 11 11 10 9 9 9 8 9 10 10 11 11 10 10
7 5 7 9 10 8 8 6 8 7 7 5 3 6 7 10 8 7 6 6 7 7 7 7 8 8 1 5 8 11 11 11 11 10 9 10 10 9 8 8 8 7 9 10 10 11 11 12 12
4 4 6 5 11 7 9 7 3 5 6 4 3 5 7 13 10 8 6 5 5 5 6 7 8 9 9 10 8 10 7 8 9 8 7 10 12 12 10 9 1 10 11 11 11 11 12 12 11
2 5 7 5 11 8 10 8 3 2 6 3 3 4 10 12 9 7 5 4 2 3 5 7 8 9 10 9 8 10 6 8 10 7 3 9 7 8 10 8 5 8 10 11 12 12 13 12 11
3 4 5 6 8 8 12 7 9 6 7 6 7 7 8 10 9 7 5 3 0 3 5 6 8 9 10 8 10 9 8 7 8 8 9 7 8 8 7 10 9 11 10 11 13 13 12 12 10
4 3 7 4 6 2 9 6 3 6 7 6 10 11 11 10 8 6 4 1 1 2 4 6 8 8 9 9 7 5 5 6 6 8 8 8 7 7 7 6 6 6 6 6 7 8 8 10 7
6 5 3 3 4 2 7 4 4 6 3 5 1 11 10 10 8 6 4 2 0 2 4 6 7 7 8 6 6 7 6 6 5 7 8 7 5 6 7 6 7 7 6 8 7 6 10 11 13
9 7 7 6 5 4 2 2 4 8 5 2 4 7 10 9 7 5 2 2 1 2 4 6 7 7 7 7 6 6 6 6 7 6 7 7 6 6 7 7 7 7 7 8 8 9 9 11 12
7 11 9 4 5 4 2 3 2 6 6 7 7 9 9 9 8 7 5 4 3 2 4 6 7 7 7 6 7 5 4 6 5 5 7 10 7 7 7 8 8 8 8 9 9 9 9 9 10
12 10 8 4 2 2 3 6 11 5 6 10 11 10 10 9 8 8 6 4 2 2 4 6 6 7 7 7 6 5 4 4 7 8 9 9 8 8 8 5 6 6 8 9 8 8 8 8 9
4 5 6 4 1 3 3 2 6 6 8 10 11 12 12 11 11 9 5 4 2 3 5 5 5 6 7 6 5 4 4 4 3 3 4 8 8 9 8 6 7 8 8 8 8 9 8 8 8
5 7 7 5 2 2 4 5 5 5 8 11 11 11 11 11 10 9 7 5 3 2 4 5 5 5 7 6 5 4 4 4 4 4 5 8 8 10 8 6 7 9 7 8 8 8 9 9 8
9 5 4 4 3 3 7 15 13 10 12 12 12 11 12 12 12 10 9 7 5 4 3 4 4 5 6 4 4 2 2 4 4 5 6 8 7 9 8 7 7 7 6 7 7 10 10 10 10
3 4 5 4 3 4 6 13 15 13 14 14 14 13 13 13 11 11 9 7 6 4 4 2 4 5 4 4 4 4 3 3 2 3 6 7 7 9 8 7 7 7 6 7 8 8 11 9 10
3 4 4 3 1 4 8 20 18 14 12 11 10 11 12 12 12 12 9 8 7 4 3 3 2 4 3 3 3 2 3 1 1 2 4 6 7 8 7 8 7 8 7 8 8 9 8 8 9
9 4 4 3 6 2 12 12 3 4 1 0 4 5 6 8 9 10 10 10 7 5 4 3 2 3 3 3 3 3 3 3 2 2 3 4 6 6 7 8 7 8 7 6 7 7 8 6 9
3 3 2 3 4 2 6 5 8 6 4 3 2 2 3 3 4 5 8 9 7 5 3 4 4 4 4 4 4 4 3 3 1 2 3 3 5 6 7 8 8 7 6 7 7 7 7 7 7
4 0 2 2 2 4 4 2 2 2 7 8 9 4 3 2 3 5 7 7 5 5 5 4 5 5 5 5 5 4 3 1 1 2 3 3 3 3 5 6 7 7 6 7 8 8 8 6 6
6 2 1 2 1 1 4 3 4 5 6 6 5 6 2 2 3 3 4 3 5 4 5 7 8 8 7 7 6 6 4 3 3 3 4 3 3 3 3 6 6 6 7 7 7 7 7 6 6
4 4 1 1 1 2 3 2 9 6 6 7 6 7 7 2 4 5 6 7 7 8 9 9 9 9 9 9 9 8 7 6 6 5 4 4 3 3 4 6 6 6 6 7 7 7 7 7 6
3 4 1 2 2 3 1 6 2 6 6 5 1 4 7 4 4 7 8 9 10 11 11 11 11 11 11 11 11 9 9 6 6 6 4 3 3 3 4 5 6 7 7 6 6 5 5 6 5
3 1 4 2 2 3 3 5 2 4 9 11 10 6 8 6 5 7 9 11 12 13 14 13 13 13 12 12 11 11 10 11 8 7 6 5 4 4 3 5 5 5 5 6 6 4 5 6 5
4 2 2 3 3 4 5 5 3 5 4 7 7 8 10 11 11 11 11 11 10 12 12 13 14 14 13 13 12 11 12 11 9 8 8 7 6 5 5 5 5 5 5 5 6 5 5 7 4
4 4 4 4 3 4 5 1 4 5 4 5 8 7 8 10 12 12 12 12 12 12 12 13 13 14 13 13 13 13 12 11 11 11 10 9 7 6 5 5 5 5 5 5 5 5 4 6 5
5 5 8 4 5 4 4 6 6 7 6 2 7 6 8 9 11 10 11 11 10 11 11 12 13 13 13 12 13 13 13 12 12 12 12 10 9 8 7 6 6 6 5 5 5 5 4 4 5
Wind_Direction
271 241 252 228 229 239 122 131 105 130 139 73 71 349 74 40 15 40 98 29 33 46 43 52 41 43 47 43 35 30 24 11 354 355 344 338 322 283 284 290 281 279 285 290 295 302 313 246 230
266 216 222 251 254 210 137 130 159 120 99 115 95 104 55 76 75 108 137 25 44 57 51 43 43 43 45 43 37 35 27 17 6 358 352 350 344 332 299 291 280 282 290 294 292 296 292 271 238
250 267 217 218 257 274 130 171 116 117 115 129 109 34 59 86 64 74 75 38 62 64 66 44 45 44 43 41 36 32 27 21 11 357 350 342 333 324 312 300 304 289 289 292 292 292 295 289 243
193 198 230 238 202 34 109 133 141 136 122 70 103 90 91 22 75 47 78 111 65 57 64 52 44 42 39 36 33 28 25 20 15 9 356 342 326 321 322 312 308 306 294 289 285 283 288 296 268
207 244 212 224 92 119 117 125 152 161 130 137 250 117 95 100 95 83 74 54 55 51 44 62 44 36 34 31 25 19 15 11 6 3 2 357 349 337 328 320 314 301 294 290 288 289 290 281 278
198 277 206 180 137 126 128 145 166 156 140 114 168 126 107 129 115 93 78 70 47 48 32 22 77 45 36 37 20 8 2 359 358 355 352 347 342 335 332 325 317 311 300 293 291 291 288 278 273
244 208 213 159 138 154 148 164 177 158 146 133 97 154 112 148 121 115 97 83 71 48 31 21 12 359 157 102 46 2 351 348 342 341 342 334 317 302 305 304 303 323 315 303 297 291 286 281 275
277 270 184 152 168 142 140 161 49 176 116 80 340 157 171 138 141 127 118 92 71 54 36 17 5 0 352 343 54 340 312 332 318 312 315 317 292 257 259 271 323 338 319 308 296 287 281 275 270
298 224 176 154 175 135 153 159 169 42 139 177 87 36 79 120 148 152 143 140 139 68 31 12 6 357 348 338 350 320 298 296 263 267 255 297 303 320 313 350 348 308 299 300 299 294 286 283 270
298 245 69 5 50 157 171 189 158 187 164 174 157 121 137 153 170 179 196 186 120 25 24 11 1 354 345 339 344 331 336 337 336 330 332 324 326 317 299 275 263 260 263 263 259 256 254 253 258
36 34 119 70 34 116 153 166 166 220 204 199 198 167 167 170 176 195 196 197 67 35 17 7 356 350 346 345 331 340 336 351 338 349 339 332 329 340 322 319 310 329 273 294 313 296 275 295 291
121 69 48 96 48 138 174 117 206 241 46 16 235 159 175 187 185 197 212 175 73 8 17 359 352 347 350 336 343 335 333 339 342 341 348 343 341 338 327 316 328 315 321 320 305 302 302 295 290
100 119 85 90 85 60 359 223 301 244 195 180 165 173 193 204 195 178 196 168 284 327 2 357 349 352 350 339 342 336 339 339 335 348 356 345 339 337 330 332 329 330 328 324 323 317 313 309 305
117 112 106 85 83 63 295 211 286 209 169 196 189 203 208 214 205 195 196 212 229 322 353 351 352 350 343 345 342 331 343 336 339 358 9 354 353 353 340 334 339 331 342 335 323 318 312 304 303
128 110 123 77 37 95 332 236 230 209 191 213 215 218 219 219 221 227 210 218 252 329 349 357 347 341 345 347 344 336 358 340 25 3 6 349 351 346 338 330 325 335 331 320 318 315 315 308 303
133 173 162 101 0 130 269 275 152 164 209 227 224 222 224 229 232 222 189 217 214 297 337 339 341 338 346 344 340 348 0 23 37 355 337 352 350 349 335 335 341 346 336 334 330 326 322 311 307
197 186 197 145 67 298 242 286 104 191 225 242 233 226 218 221 212 207 206 209 203 270 300 313 335 340 344 337 332 345 346 12 19 7 2 1 2 358 344 344 345 347 345 339 340 332 324 318 310
180 156 184 176 74 264 254 263 268 215 228 238 239 228 227 219 212 215 210 195 204 218 261 301 320 337 338 328 319 290 333 34 7 10 15 7 9 6 2 359 1 357 356 344 338 342 339 321 323
105 140 140 101 45 307 264 278 274 260 248 244 248 254 251 237 213 189 200 203 204 218 252 294 321 353 343 349 347 325 356 347 6 19 19 16 14 9 4 358 354 352 354 345 345 346 334 335 334
80 132 77 105 52 303 301 285 271 255 256 258 269 271 267 257 235 174 198 211 217 230 226 251 314 332 345 333 334 308 310 285 21 26 25 19 10 10 357 358 349 351 342 350 358 356 347 333 345
50 38 48 7 306 209 296 267 234 110 102 194 261 268 295 289 276 190 198 214 225 221 219 225 270 290 299 315 295 261 224 223 241 4 4 6 4 11 1 350 346 347 343 344 348 0 351 336 332
135 38 38 351 333 291 355 293 310 71 56 74 359 234 327 320 261 240 188 212 207 216 207 217 231 261 258 271 266 267 291 299 11 325 339 341 360 1 359 347 345 343 338 344 342 347 338 340 335
97 156 24 330 5 311 126 255 199 92 107 44 34 47 59 81 154 160 184 196 208 205 214 231 234 235 238 254 259 272 270 262 303 307 305 312 326 342 351 341 338 338 339 340 337 339 338 336 331
134 199 232 227 294 256 52 316 299 65 1 352 38 49 35 157 182 195 211 228 239 219 228 234 235 236 232 230 235 247 256 261 270 268 288 297 300 308 333 336 337 334 341 340 334 331 329 331 333
236 244 297 275 20 8 77 324 269 25 10 335 343 354 355 359 240 235 242 242 238 237 229 232 235 240 230 228 230 232 236 243 256 256 265 290 307 326 340 337 335 335 333 332 330 329 331 332 337
39 349 328 289 307 33 97 236 119 357 24 16 304 352 349 345 276 257 259 256 248 237 235 228 230 233 228 226 230 230 230 233 237 243 255 276 285 304 314 319 325 331 328 331 332 323 332 327 334
105 184 32 37 107 253 223 236 202 130 54 51 56 50 26 7 328 280 265 256 251 240 231 228 228 230 230 225 228 229 226 226 230 230 232 238 243 255 284 294 295 303 306 318 322 316 331 325 339
324 93 184 189 285 273 207 264 189 150 43 65 40 357 342 338 328 313 300 290 268 256 248 233 229 229 228 227 228 230 227 226 227 232 232 236 243 240 263 284 293 297 300 307 316 319 335 329 341
157 203 223 312 268 288 307 130 137 158 142 26 1 350 338 334 328 321 312 302 293 277 251 239 235 233 233 232 230 230 231 226 224 226 223 225 231 236 247 260 269 277 286 292 296 309 319 325 334
307 254 219 254 178 247 300 278 141 135 148 268 348 333 331 330 333 334 316 304 288 283 267 249 239 234 234 236 236 233 231 223 224 227 226 221 222 224 229 242 251 257 264 272 276 289 309 309 322